Вернуться в каталог

COSMOS 2557

GLONASS

АктивенНавигацияMEO
NORAD 52984·PAYLOAD·🇷🇺 Russia

Запущен Jul 7, 2022 с Plesetsk Cosmodrome

Loading…

Ближайшие Пролёты (ближайшие 24 часа)

TLE

СвежийSource: CelesTrak SupGP

Эпоха: Sep 12, 2026, 23:59 UTC

1 52984C 20075A   26255.99979167  .00000000  00000+0  00000+0 0  2552
2 52984  64.2415 311.3877 0012611 269.6069 197.1190  2.13102358    15

Отслеживайте COSMOS 2557 в реальном времени с AllMySat

Download on the App Store